GFSSE_con_3kmhel_294.txt.gz
Helicity
37 -11 -17 20 38 36 25 15 9 12 32 36 40 57 71 74 68 46 23 17 21 30 38 32 30 28 20 18 13 11 14 6 3 10 20 29 28 26 42 37 39 36 37
37 1 -13 23 33 35 20 6 -4 -5 4 13 23 37 49 59 62 63 60 49 25 22 22 24 26 27 27 28 29 28 22 19 15 22 24 27 25 31 38 33 32 26 28
56 24 3 15 41 39 23 9 3 0 2 4 8 20 30 34 37 40 43 44 40 41 34 22 13 18 27 34 40 34 33 33 35 39 36 14 12 32 35 33 31 32 33
39 -6 6 17 28 25 19 14 16 8 6 7 10 14 18 18 19 18 19 21 24 32 40 45 31 18 13 16 21 24 31 31 27 9 17 0 7 29 56 47 41 38 36
43 -6 16 30 30 15 12 19 16 10 7 5 6 13 11 15 15 12 7 3 5 15 23 30 41 45 45 47 35 18 13 9 -5 1 29 24 43 56 74 73 62 60 59
33 7 23 33 36 34 22 13 6 5 3 3 5 6 8 7 9 10 13 6 2 3 4 6 13 21 33 39 39 35 37 32 23 22 35 20 45 73 73 75 76 75 81
23 10 19 27 32 42 37 29 21 14 5 2 2 2 4 5 7 9 6 8 10 6 2 -1 -5 -6 0 8 16 17 15 12 10 17 29 15 71 89 77 69 78 93 92
88 85 65 29 5 5 11 14 15 15 13 5 3 2 0 0 1 4 10 9 8 7 4 -1 -5 -4 -6 -9 -6 6 17 14 5 4 2 -4 57 88 89 89 77 79 88
194 142 119 81 44 5 -2 5 10 11 10 7 1 -1 3 0 -9 -10 -6 -1 3 3 7 12 6 -4 -7 -7 -9 -7 3 20 7 -3 14 7 -3 97 86 96 84 70 80
182 150 121 72 65 52 29 -1 5 10 8 7 6 7 8 4 4 0 5 14 7 5 0 -2 4 15 19 14 4 -3 -5 6 26 29 23 32 41 92 105 111 81 68 66
168 137 119 107 84 39 38 39 32 34 27 23 16 6 10 0 1 20 31 44 34 31 17 -7 -9 -4 0 2 3 11 12 39 34 58 91 62 42 107 118 113 97 78 76
152 137 128 121 112 80 77 69 29 52 52 48 48 32 23 22 11 22 39 28 10 29 30 24 4 -8 6 31 35 23 45 41 54 73 72 77 56 83 150 138 119 91 77
113 140 158 146 134 115 121 111 124 109 109 111 108 90 74 73 81 94 57 38 43 34 57 50 44 43 27 29 28 43 46 45 60 62 56 48 52 45 95 109 119 113 102
128 154 178 175 131 122 108 128 116 109 98 98 95 95 82 74 85 93 97 106 95 77 74 61 40 37 43 55 58 35 60 84 90 87 73 40 31 34 63 93 107 118 114
141 154 184 147 111 90 94 104 106 94 93 95 100 113 99 100 105 92 96 100 97 94 76 70 55 55 54 62 54 73 52 59 75 117 130 87 70 84 102 101 133 133 144
124 132 155 143 93 73 80 90 108 105 99 108 122 140 173 142 134 126 136 119 99 85 58 34 31 26 41 61 59 65 69 51 49 49 64 62 64 120 151 162 150 155 161
93 128 173 149 119 90 88 117 143 150 152 148 138 147 176 184 205 185 176 184 181 139 114 97 72 48 44 35 51 52 52 49 20 -1 3 15 37 36 37 70 87 103 131
79 125 184 192 179 116 94 106 119 117 114 119 144 167 175 179 194 197 201 217 209 186 188 188 138 159 130 101 93 40 34 28 32 32 30 31 42 46 118 117 145 135 120
88 139 206 253 240 151 114 79 80 61 70 90 117 148 193 185 176 195 187 175 179 178 196 183 156 143 153 172 151 121 83 82 125 111 111 137 149 59 75 116 173 119 193
99 144 190 260 288 253 200 119 97 59 61 91 123 140 147 162 158 134 164 175 160 158 182 181 117 108 102 139 120 120 150 126 211 154 155 157 147 123 103 110 123 106 155
125 161 193 243 299 272 231 177 119 91 78 82 93 95 121 115 118 108 99 119 110 110 104 110 63 54 81 127 28 101 118 112 241 196 120 109 118 99 109 76 45 47 87
92 130 187 220 274 287 216 160 98 63 39 20 65 108 127 131 122 117 97 106 110 89 111 133 112 43 18 44 15 1 58 106 140 117 42 62 131 54 99 37 31 72 67
109 126 159 198 244 246 217 202 182 154 102 76 78 101 133 139 143 121 109 104 110 85 75 73 66 55 23 -6 -2 -66 -25 43 5 16 9 -31 19 13 76 75 78 82 50
98 99 102 149 213 223 208 203 188 140 119 62 57 62 104 112 104 92 64 66 62 31 27 14 17 -5 -29 -10 -37 12 8 -21 -9 17 38 2 -16 7 36 25 25 49 59
73 77 89 157 202 192 179 153 150 153 103 75 60 53 56 61 64 46 31 27 26 11 6 2 19 24 -1 -33 -28 -15 -1 10 23 -6 -9 6 3 2 21 44 43 42 52
107 94 95 139 157 161 153 125 98 80 67 71 55 48 34 35 44 41 28 19 17 8 15 -4 -2 7 7 -9 -3 -5 -17 -37 -7 -6 6 15 11 13 0 28 33 42 61

GFSSE_con_3kmhel_300.txt.gz
Helicity
-15 3 16 13 9 17 27 19 26 40 47 47 39 43 38 34 25 24 33 41 34 30 46 54 53 47 37 33 32 28 23 11 10 -0 -9 -2 10 7 4 4 7 6 22
12 20 20 11 13 30 55 40 31 36 42 43 34 29 26 21 14 15 29 33 35 35 34 35 45 39 33 30 28 17 7 1 -2 -2 -3 -13 -0 -2 1 16 28 30 33
-17 35 6 12 13 30 66 59 42 34 37 34 25 25 32 38 38 31 23 20 22 30 34 31 25 22 20 21 21 14 10 7 9 -3 -5 -12 -17 2 -10 -7 25 38 49
10 37 -2 11 9 25 60 56 47 38 35 32 24 25 29 37 39 38 34 26 18 11 16 32 42 35 26 22 21 26 30 29 22 9 6 11 13 35 39 26 43 52 46
16 18 8 14 -1 24 51 51 41 35 29 26 25 27 27 26 26 20 21 19 18 22 14 14 16 20 23 26 24 20 10 -0 -14 -14 -19 -4 53 64 66 60 49 53 58
22 40 25 30 -1 10 39 45 37 35 29 21 17 15 13 10 5 8 12 11 10 10 13 9 9 12 11 9 14 18 5 -5 -4 -10 -13 1 1 60 71 72 67 51 51
65 59 64 48 -12 10 22 14 7 7 4 -1 4 -4 -4 -5 -6 -7 1 15 18 18 16 11 6 4 6 10 11 9 11 9 4 3 3 8 5 -18 32 56 68 66 54
72 60 71 70 65 51 31 -21 -32 -25 -32 -30 -31 -30 -23 -23 -18 -11 -9 -5 11 28 37 41 37 27 19 15 13 11 12 14 15 9 6 7 4 1 -11 38 61 44 39
96 70 86 93 87 78 69 56 30 40 56 79 69 29 -5 1 1 -2 -2 6 26 32 41 45 47 49 51 50 46 41 28 12 14 15 18 23 17 12 16 9 48 56 50
114 110 122 103 85 71 75 78 80 93 103 97 82 71 -21 -16 8 -4 -5 4 6 17 38 48 50 44 46 51 52 49 39 38 25 25 33 39 18 17 18 14 33 70 63
141 147 130 105 84 84 82 89 97 97 96 88 75 73 53 46 54 37 34 18 14 25 30 42 47 54 60 67 74 80 84 77 62 49 54 62 66 59 52 39 13 33 74
139 143 130 110 94 88 70 83 88 79 85 80 81 78 71 71 84 94 96 113 92 69 61 49 35 42 47 52 60 60 72 85 96 108 101 76 81 74 74 76 64 34 34
120 133 138 113 91 89 93 84 91 86 93 102 109 91 78 72 79 82 82 82 76 88 79 70 62 57 58 42 42 41 36 43 78 94 89 97 115 110 101 80 71 72 66
160 154 136 130 113 116 107 109 105 102 90 89 85 91 87 76 77 84 88 91 77 79 71 63 58 54 55 54 45 46 52 54 72 84 93 145 143 128 111 118 140 162 168
169 164 164 134 133 133 145 132 131 119 97 89 86 90 85 97 108 100 121 124 129 121 105 98 81 83 77 80 80 81 91 83 108 117 119 216 193 203 181 166 149 136 180
173 163 126 146 135 141 159 152 125 108 98 93 108 128 144 144 151 165 177 181 183 176 159 144 138 128 114 131 151 170 166 206 228 224 198 190 295 290 271 244 244 249 275
150 133 156 144 137 137 136 136 132 120 124 137 147 177 186 181 177 165 179 190 194 184 175 185 172 146 148 169 180 187 226 269 307 303 247 236 256 291 344 273 262 290 237
110 90 84 113 117 118 126 119 119 131 137 144 148 157 171 176 171 164 171 194 183 177 171 169 180 144 156 181 212 268 288 307 309 283 264 249 252 218 247 307 247 276 261
134 74 102 124 118 105 102 99 110 127 131 131 137 147 161 166 172 168 163 166 150 141 143 106 107 90 123 160 175 242 248 228 216 207 203 229 225 219 192 266 246 292 295
85 115 155 122 114 97 90 89 94 115 135 140 143 151 157 147 145 131 137 152 140 141 145 112 112 116 124 118 129 176 133 92 73 62 57 67 92 119 113 120 113 119 201
95 140 87 133 102 90 71 66 87 70 85 121 133 142 145 131 136 119 112 128 134 139 118 95 39 94 162 91 27 43 48 32 4 33 24 25 61 77 90 87 68 60 78
83 91 88 88 61 99 83 53 39 59 82 86 105 139 138 130 117 116 110 108 95 89 98 87 54 7 63 109 9 18 28 6 20 20 5 13 44 45 63 56 42 62 67
149 144 101 147 136 136 109 77 62 64 72 108 132 132 144 116 108 82 64 43 42 21 33 46 38 27 -0 41 77 -9 16 27 26 19 32 22 64 55 43 46 37 45 47
119 147 134 176 174 139 92 89 88 83 94 87 98 87 77 64 60 44 41 34 21 11 23 4 6 -12 -40 -17 -61 -19 -24 -45 -15 18 43 67 63 44 34 39 36 35 33
88 102 145 173 179 148 139 130 126 130 93 72 65 61 41 43 39 36 36 32 28 7 -7 -5 -5 -7 -37 -53 -54 -64 -60 -48 -47 -35 36 95 60 76 49 15 22 22 44
134 133 144 175 182 166 149 123 112 90 66 59 37 31 31 27 38 35 25 17 15 11 3 -12 -23 -24 -46 -56 -70 -62 -64 -49 -30 -19 36 56 70 98 54 32 23 25 46

GFSSE_con_3kmhel_306.txt.gz
Helicity
14 24 6 13 1 -7 -16 25 53 63 61 52 37 6 16 8 -15 -7 1 1 -0 -1 13 16 22 4 -15 -9 -0 12 15 8 -1 -9 5 3 -2 -6 -14 -33 7 9 -6
33 26 14 20 10 -7 -8 19 51 67 70 59 56 49 17 4 -2 -0 7 11 -1 -12 -16 -25 -31 -24 -15 1 26 14 13 11 5 -12 -1 44 23 6 -0 -16 -29 6 8
29 36 22 27 20 -4 -3 12 49 67 71 70 46 39 34 24 20 21 16 26 22 9 3 -3 -15 -23 -20 -7 12 10 6 5 -5 -12 26 -11 4 19 4 -5 -14 -13 -13
28 27 35 32 22 2 -5 1 49 53 54 55 49 9 28 23 24 29 31 36 38 33 30 32 33 27 23 19 12 5 -1 -9 -9 33 28 -11 -10 51 21 11 2 -6 -10
31 32 65 38 25 22 6 14 33 45 48 49 22 -11 -7 14 22 24 27 33 33 34 38 44 49 52 50 48 41 30 20 21 61 76 5 16 2 41 23 22 36 38 20
53 46 63 46 32 37 25 32 38 49 48 44 39 27 23 25 30 36 37 38 37 34 30 27 26 27 26 25 22 19 15 18 59 3 2 14 22 32 13 3 22 15 33
91 63 65 57 45 58 45 46 56 55 51 42 35 23 25 27 24 25 32 40 44 44 40 34 31 30 29 27 25 23 21 18 7 6 4 15 35 34 24 23 5 17 17
103 93 65 73 86 70 64 58 59 51 46 41 28 23 25 15 11 7 16 17 28 41 43 41 37 32 28 26 24 21 16 14 -1 13 18 21 59 54 49 46 25 30 31
105 111 88 62 74 82 93 80 90 77 60 46 42 25 15 7 -1 -10 -16 -20 -15 -7 39 43 39 36 34 31 29 25 21 19 5 31 27 51 82 60 54 57 60 36 35
88 76 82 76 59 32 51 72 67 61 53 43 40 38 14 19 30 36 3 43 35 30 32 40 36 33 29 32 34 35 30 10 26 46 57 104 79 67 63 64 67 51 34
81 64 59 60 62 58 32 38 8 18 27 15 2 25 -0 37 37 41 70 76 68 55 45 42 36 28 24 29 43 41 24 43 54 56 115 112 104 125 131 128 133 136 114
115 84 74 67 63 61 35 32 32 29 39 50 47 39 31 42 51 45 43 44 53 52 40 35 37 19 21 36 54 46 44 64 41 250 133 181 153 134 128 147 152 147 158
85 79 90 83 65 37 40 44 51 42 38 34 54 59 42 41 43 46 40 41 54 64 54 54 54 62 69 70 61 60 77 96 181 216 210 247 171 157 223 248 212 189 196
136 123 112 105 95 67 53 54 58 53 47 54 56 68 48 44 45 48 56 58 59 72 75 79 77 80 96 90 81 90 129 153 153 139 193 342 319 338 298 256 177 158 142
103 116 109 110 105 90 93 73 75 70 62 51 48 54 45 38 45 58 74 76 82 85 92 85 85 88 85 98 172 169 161 206 185 148 154 249 301 305 285 248 248 246 210
72 77 88 101 95 91 94 91 75 63 48 37 32 43 52 64 66 65 72 80 95 99 95 98 98 86 85 140 138 152 177 170 182 158 127 120 167 210 213 222 215 217 240
117 87 62 68 71 78 74 58 37 30 31 46 48 72 81 82 75 72 73 78 80 75 73 62 59 63 79 150 106 109 115 121 116 106 92 79 66 73 106 121 131 129 138
183 115 136 84 56 68 57 67 53 49 48 52 56 66 89 90 88 78 83 85 68 61 56 63 63 58 88 99 102 99 89 65 72 73 70 62 54 54 50 56 63 81 98
133 40 206 194 101 66 53 43 46 57 60 62 64 65 77 83 84 79 75 72 58 73 74 71 64 50 63 49 44 34 36 43 44 46 47 40 42 47 47 42 30 73 78
135 169 184 250 161 70 57 28 39 41 48 62 70 70 86 84 88 71 69 80 78 82 86 81 52 36 26 24 29 39 40 39 34 36 36 28 34 34 48 48 51 61 53
112 109 102 109 181 4 -23 35 42 43 46 56 69 86 92 99 100 85 70 73 95 100 69 28 26 25 25 11 3 28 31 30 30 39 34 38 39 43 41 43 47 44 56
73 94 70 38 -12 24 45 56 62 76 58 76 79 104 103 113 115 87 71 72 69 56 61 51 38 37 43 21 -5 -13 11 50 34 40 31 36 31 33 40 48 53 50 50
68 46 69 81 83 76 75 65 50 95 79 74 88 94 108 134 96 75 64 59 59 54 62 71 68 57 45 44 56 1 3 25 7 46 39 32 28 27 26 27 40 33 41
54 41 58 84 86 69 61 111 69 59 66 84 100 114 127 75 84 81 74 69 72 61 69 64 57 67 45 38 19 34 37 26 5 10 33 36 25 33 40 33 45 40 45
71 48 53 75 70 65 80 68 74 86 66 82 98 123 112 89 93 80 82 77 79 61 57 54 51 49 32 26 21 8 6 8 10 1 15 26 23 41 26 31 27 25 32
58 55 51 58 78 95 101 80 73 108 116 112 118 116 81 75 72 83 79 75 63 45 42 33 35 34 21 12 -0 -5 -3 -9 -1 -0 -0 8 14 34 34 33 35 33 41

GFSSE_con_3kmhel_312.txt.gz
Helicity
90 77 44 36 35 41 40 22 33 27 31 30 10 4 4 14 21 25 27 22 28 25 26 25 27 26 30 34 40 46 45 33 14 1 -4 -4 6 11 11 11 63 35 9
111 81 48 37 35 40 41 30 31 29 33 32 14 9 8 7 11 18 21 12 13 18 10 16 22 20 23 27 28 31 44 46 31 27 22 11 -15 16 28 22 19 16 12
98 66 53 47 37 39 39 34 31 33 38 34 28 21 18 13 4 6 15 9 4 -0 3 3 3 7 12 13 11 24 59 64 50 57 86 -2 11 -7 18 17 19 23 22
76 59 52 51 42 46 49 43 41 32 34 26 22 16 14 13 11 7 14 19 9 4 2 3 7 10 8 2 2 15 52 62 71 62 73 -32 43 -2 18 19 16 12 11
66 83 59 57 48 51 56 51 47 39 34 26 23 20 14 13 12 12 18 15 10 7 5 6 8 8 6 -0 -2 8 38 59 130 132 41 79 31 26 33 22 29 20 22
97 72 68 73 59 54 52 50 44 37 37 32 25 18 11 6 7 7 10 12 7 5 5 4 5 7 4 2 -2 -8 -5 23 55 59 37 184 77 50 40 39 28 19 25
84 65 80 74 74 71 63 56 50 41 36 26 17 11 7 1 4 2 -0 4 7 5 5 5 4 3 2 -1 -3 -7 -13 -12 -7 40 66 135 97 65 65 64 61 43 30
60 81 84 71 82 74 69 57 51 44 31 24 12 6 2 -3 -4 -3 -2 1 4 5 3 3 2 -1 -5 -5 -9 -15 -21 -10 -31 36 103 88 88 81 82 83 84 85 65
103 59 53 64 71 78 65 59 38 28 19 12 3 -6 -12 -20 -18 -13 -4 -2 -0 2 1 -1 -3 -5 1 -2 -5 9 4 18 -27 32 137 141 125 139 138 123 121 130 140
81 57 37 43 34 42 39 34 21 6 1 -10 -19 -36 -42 -38 -35 -31 -3 -5 -6 -6 -9 -14 -15 15 12 5 -14 3 30 9 33 79 165 158 121 158 171 162 158 145 140
61 34 19 8 42 35 23 7 1 -12 -27 -20 -30 -36 -28 -14 -22 -5 9 -2 2 1 -6 -10 6 7 14 -4 1 17 3 17 115 109 202 210 177 203 151 129 133 142 155
76 37 29 55 31 -13 18 -30 -45 -16 6 39 61 48 26 35 16 4 -5 -6 -10 -7 -2 -0 8 15 13 25 23 64 56 42 67 119 186 240 175 220 165 167 108 102 116
47 69 96 52 35 23 25 -5 89 119 85 49 63 97 51 35 40 33 7 10 -7 23 12 23 36 45 47 83 128 83 80 92 81 96 171 181 230 218 219 186 145 128 141
252 152 159 180 143 166 108 145 123 111 88 53 40 55 63 44 41 32 41 37 49 92 59 55 55 58 94 130 96 106 119 108 52 53 86 120 137 96 136 154 179 177 105
187 147 134 148 166 159 124 116 137 103 60 22 28 53 54 17 27 9 26 42 72 105 115 102 97 91 122 123 65 52 61 89 79 60 66 95 51 61 73 87 111 97 83
114 119 104 92 94 93 93 76 60 39 -8 -13 47 62 85 66 67 71 96 116 113 71 94 93 64 89 72 69 79 48 46 26 20 23 30 16 35 23 5 5 45 59 54
118 105 100 85 86 61 38 22 24 7 15 57 14 67 82 95 102 107 88 94 90 79 103 59 56 101 100 34 19 4 9 36 48 52 46 -14 5 12 6 5 33 43 48
133 83 53 65 44 34 39 63 103 121 74 52 20 35 69 91 128 119 71 77 74 62 78 82 127 93 82 132 78 19 -11 2 18 23 19 28 39 11 10 33 22 8 11
105 186 121 75 77 61 73 47 52 92 77 68 68 55 51 81 70 55 74 105 99 69 136 158 152 78 25 33 -4 28 33 32 37 4 8 7 2 25 11 37 25 -3 -18
173 291 246 184 181 241 254 135 131 113 142 111 74 56 90 90 117 32 61 105 101 126 146 125 119 81 71 27 55 55 35 14 12 13 36 32 21 25 16 34 18 24 44
147 109 76 58 123 216 207 139 140 129 109 77 44 46 71 105 139 139 109 79 75 122 126 127 62 50 54 46 19 60 54 -14 9 37 27 -2 -2 39 33 36 27 28 35
93 116 134 120 134 197 167 224 225 215 113 9 29 54 70 99 140 129 114 99 77 88 159 139 133 7 72 80 18 10 35 21 -6 31 -4 1 -3 31 16 45 46 43 38
102 119 119 110 119 98 134 127 173 150 59 38 143 107 95 115 109 125 126 96 118 113 107 137 131 133 53 56 85 35 43 41 60 3 37 -5 9 27 9 50 61 49 54
117 132 110 108 95 114 69 67 41 97 181 205 169 89 132 169 141 137 103 110 125 113 124 109 118 118 92 102 53 79 33 25 35 19 80 9 24 48 49 64 80 58 77
124 132 105 114 124 115 132 83 131 153 113 129 170 244 275 278 181 157 154 135 112 113 97 98 106 110 116 72 73 44 60 36 63 38 25 35 28 58 52 86 98 85 87
148 167 166 130 145 126 107 120 159 164 150 154 109 123 143 151 168 156 118 127 160 75 76 75 84 102 87 108 61 55 50 38 37 36 41 35 35 31 54 100 99 111 87

GFSSE_con_3kmhel_315.txt.gz
Helicity
95 59 69 57 57 50 54 45 24 16 18 15 18 14 11 17 19 19 21 16 11 16 16 10 11 19 25 27 23 21 21 33 30 21 1 -16 -8 12 22 23 27 23 26
106 57 76 63 63 56 55 49 35 19 22 22 22 11 8 12 27 19 12 12 14 8 7 10 14 17 15 18 33 43 48 46 35 22 9 -5 -10 -1 17 20 16 15 19
102 73 72 61 62 57 49 47 40 21 26 22 18 13 10 11 20 27 15 7 8 9 5 3 3 4 9 21 42 39 36 43 44 38 6 -11 5 4 13 13 12 10 16
107 100 64 64 65 60 49 47 41 29 26 19 14 10 11 13 13 15 17 11 6 4 1 1 1 1 1 5 29 30 32 48 47 62 32 -26 -1 4 19 23 18 15 14
123 103 59 64 70 64 54 50 41 32 21 13 10 10 9 10 6 8 6 5 3 4 4 2 0 -1 -4 -4 5 29 32 76 40 101 38 26 7 34 34 32 28 37 29
113 90 60 56 60 57 51 45 41 34 23 16 11 8 9 8 5 4 6 6 4 4 4 4 1 -4 -7 -10 -10 1 34 66 84 75 137 63 56 56 54 61 60 42 38
130 85 58 51 44 47 47 44 33 24 17 11 6 5 2 1 1 -3 0 1 3 3 0 -3 -5 -6 -5 -4 10 50 56 50 52 79 122 85 87 90 94 108 113 107 98
92 75 63 52 51 37 40 35 30 21 12 5 -2 -7 -8 -10 -10 -9 -7 -5 -3 -2 -4 -5 1 7 1 4 34 54 66 86 107 107 123 101 123 139 134 149 143 136 123
104 97 76 55 58 36 36 29 16 13 6 -5 -15 -18 -18 -14 -9 -7 -4 0 4 5 5 10 16 11 1 8 31 53 91 117 127 138 94 75 141 143 154 176 148 143 144
76 82 68 48 40 34 14 23 5 6 2 -7 2 5 -5 -11 -11 -3 -4 -3 -1 4 4 6 12 7 1 11 23 34 72 91 111 113 119 109 118 126 115 169 135 144 149
59 51 32 14 14 12 5 -10 -12 4 45 65 55 9 0 -8 -12 -4 -5 -5 -9 -7 -12 -9 5 4 3 24 60 77 71 69 112 138 146 179 130 113 118 86 91 111 119
72 33 18 26 15 -12 -16 -23 -1 44 41 49 82 77 56 27 15 10 -7 -1 2 -8 -4 -1 12 24 56 66 79 84 37 48 92 132 151 152 168 153 108 155 149 127 118
109 147 73 36 39 53 57 31 57 78 82 80 78 70 65 46 51 43 20 9 6 13 26 33 58 76 117 98 51 26 48 62 79 105 119 144 170 162 191 180 106 90 104
279 195 182 175 179 191 201 158 133 90 74 56 87 80 70 63 83 70 43 54 74 81 126 82 87 120 107 111 94 65 23 59 60 75 107 105 97 101 89 83 95 65 60
230 196 194 185 176 163 141 102 79 48 79 76 89 100 96 73 98 92 153 159 146 139 135 134 93 125 101 53 13 45 78 60 58 67 43 72 56 50 38 39 71 72 66
194 206 180 173 139 114 105 92 78 80 60 56 84 114 120 112 126 117 132 139 116 114 105 104 158 114 80 -3 32 44 57 56 39 23 -10 -17 20 22 33 41 54 63 69
143 161 209 190 146 133 99 90 68 59 42 34 53 97 133 147 141 101 99 131 92 92 114 171 175 97 74 28 -21 4 -5 3 -23 -29 -44 -31 -20 9 14 28 27 28 40
127 170 158 152 135 117 93 86 98 98 80 50 59 75 122 106 82 91 125 115 65 112 162 174 127 114 102 36 -8 -14 12 6 9 -20 -55 -51 -53 -37 -3 22 12 13 23
136 125 178 164 129 106 73 119 156 153 120 83 87 82 125 96 71 99 109 105 89 136 189 204 232 148 144 52 38 16 15 3 12 5 -10 10 -22 -48 -44 -4 -1 -6 44
184 178 224 267 199 99 120 200 207 171 161 98 89 72 100 100 67 83 93 109 117 145 165 144 129 118 85 43 14 55 21 9 30 14 -10 10 -2 2 -22 -34 -24 -29 39
188 154 158 232 218 175 214 223 203 204 189 124 105 68 84 108 107 96 65 99 116 141 145 135 91 108 147 118 69 68 45 43 26 -6 -27 -16 -4 -9 12 7 6 4 3
115 109 139 146 88 121 142 164 206 171 164 140 119 56 69 86 98 102 92 97 111 130 143 131 83 85 184 114 61 27 35 16 28 17 4 -18 -26 -17 5 8 8 12 37
120 142 145 126 149 162 216 271 258 160 130 133 199 120 153 169 177 110 129 119 126 130 148 156 139 95 120 166 146 30 32 30 56 54 65 46 55 20 3 24 31 48 48
130 132 128 111 140 146 156 176 174 157 155 98 167 155 202 198 225 182 219 185 165 134 162 164 170 133 94 115 109 142 110 64 44 31 40 34 99 117 51 59 104 79 39
126 124 115 116 114 126 92 96 121 148 134 104 116 147 157 203 221 232 249 184 177 151 203 206 161 139 107 103 99 45 77 90 88 52 39 70 71 107 101 117 82 44 15
124 137 120 148 161 141 121 124 146 162 157 155 158 186 159 184 230 235 190 126 89 137 136 105 98 102 95 102 80 76 74 45 49 51 47 56 59 60 64 56 32 -4 5